| time (UTC) | temp C | wind direction | speed KPH | gust KPH | rain 1hr cm | rain 24hr cm | rain mn cm | humidity % | barometer mb |
| 20260504050004 | 11 | 198 | 12.9 | 14.5 | 0.00 | 0.00 | 0.00 | 42 | 1004.3 |
| 20260504045505 | 11 | 232 | 6.4 | 19.3 | 0.00 | 0.00 | 0.00 | 40 | 1004.4 |
| 20260504043504 | 12 | 183 | 11.3 | 16.1 | 0.00 | 0.00 | 0.00 | 37 | 1004.3 |
| 20260504043005 | 12 | 166 | 14.5 | 16.1 | 0.00 | 0.00 | 0.00 | 36 | 1004.3 |
| 20260504042504 | 13 | 176 | 11.3 | 14.5 | 0.00 | 0.00 | 0.00 | 36 | 1004.3 |
| 20260504042005 | 12 | 175 | 11.3 | 14.5 | 0.00 | 0.00 | 0.00 | 36 | 1004.3 |
| 20260504041504 | 12 | 175 | 11.3 | 14.5 | 0.00 | 0.00 | 0.00 | 37 | 1004.2 |
| 20260504041004 | 12 | 168 | 12.9 | 14.5 | 0.00 | 0.00 | 0.00 | 37 | 1004.2 |
| 20260504040005 | 13 | 147 | 8.0 | 9.7 | 0.00 | 0.00 | 0.00 | 36 | 1004.1 |
| 20260504035504 | 13 | 107 | 1.6 | 9.7 | 0.00 | 0.00 | 0.00 | 35 | 1004.2 |
| 20260504035004 | 13 | 68 | 0.0 | 4.8 | 0.00 | 0.00 | 0.00 | 35 | 1004.2 |
| 20260504034504 | 13 | 66 | 0.0 | 16.1 | 0.00 | 0.00 | 0.00 | 35 | 1004.1 |
| 20260504034004 | 13 | 66 | 4.8 | 16.1 | 0.00 | 0.00 | 0.00 | 35 | 1004.0 |
| 20260504033505 | 13 | 87 | 6.4 | 16.1 | 0.00 | 0.00 | 0.00 | 36 | 1003.9 |
| 20260504033004 | 14 | 196 | 9.7 | 11.3 | 0.00 | 0.00 | 0.00 | 34 | 1003.7 |
| 20260504032504 | 15 | 199 | 9.7 | 11.3 | 0.00 | 0.00 | 0.00 | 33 | 1003.7 |
| 20260504032004 | 15 | 201 | 9.7 | 11.3 | 0.00 | 0.00 | 0.00 | 32 | 1003.6 |
| 20260504031504 | 15 | 201 | 6.4 | 9.7 | 0.00 | 0.00 | 0.00 | 31 | 1003.6 |
| 20260504025504 | 16 | 279 | 3.2 | 4.8 | 0.00 | 0.00 | 0.00 | 29 | 1003.5 |
| 20260504025005 | 16 | 281 | 3.2 | 4.8 | 0.00 | 0.00 | 0.00 | 28 | 1003.5 |
| 20260504024004 | 17 | 272 | 4.8 | 4.8 | 0.00 | 0.00 | 0.00 | 28 | 1003.4 |
| 20260504023005 | 17 | 274 | 0.0 | 11.3 | 0.00 | 0.00 | 0.00 | 29 | 1003.4 |
| 20260504022505 | 17 | 271 | 4.8 | 11.3 | 0.00 | 0.00 | 0.00 | 28 | 1003.3 |
| 20260504022004 | 17 | 267 | 9.7 | 12.9 | 0.00 | 0.00 | 0.00 | 27 | 1003.4 |
| 20260504021504 | 17 | 264 | 9.7 | 12.9 | 0.00 | 0.00 | 0.00 | 27 | 1003.3 |
| 20260504021004 | 18 | 266 | 9.7 | 14.5 | 0.00 | 0.00 | 0.00 | 27 | 1003.3 |
| 20260504015504 | 18 | 273 | 11.3 | 19.3 | 0.00 | 0.00 | 0.00 | 26 | 1003.4 |
| 20260504015005 | 18 | 280 | 11.3 | 19.3 | 0.00 | 0.00 | 0.00 | 25 | 1003.4 |
| 20260504014005 | 20 | 277 | 11.3 | 20.9 | 0.00 | 0.00 | 0.00 | 24 | 1003.5 |
| 20260504013504 | 20 | 266 | 14.5 | 20.9 | 0.00 | 0.00 | 0.00 | 23 | 1003.5 |
| 20260504013004 | 20 | 267 | 14.5 | 20.9 | 0.00 | 0.00 | 0.00 | 23 | 1003.5 |
| 20260504012004 | 20 | 257 | 16.1 | 20.9 | 0.00 | 0.00 | 0.00 | 22 | 1003.5 |
| 20260504011504 | 20 | 277 | 14.5 | 22.5 | 0.00 | 0.00 | 0.00 | 22 | 1003.6 |
| 20260504011004 | 20 | 290 | 14.5 | 22.5 | 0.00 | 0.00 | 0.00 | 23 | 1003.7 |
| 20260504010004 | 21 | 296 | 16.1 | 22.5 | 0.00 | 0.00 | 0.00 | 23 | 1003.8 |
| 20260504005504 | 20 | 281 | 11.3 | 22.5 | 0.00 | 0.00 | 0.00 | 23 | 1003.8 |
| 20260504005004 | 21 | 277 | 17.7 | 24.1 | 0.00 | 0.00 | 0.00 | 22 | 1003.9 |
| 20260504004504 | 21 | 281 | 14.5 | 24.1 | 0.00 | 0.00 | 0.00 | 23 | 1004.0 |
| 20260504004004 | 21 | 290 | 14.5 | 24.1 | 0.00 | 0.00 | 0.00 | 23 | 1004.0 |
| 20260504003504 | 21 | 285 | 19.3 | 24.1 | 0.00 | 0.00 | 0.00 | 22 | 1004.1 |
| 20260504003004 | 21 | 286 | 19.3 | 24.1 | 0.00 | 0.00 | 0.00 | 22 | 1004.1 |
| 20260504002504 | 21 | 264 | 14.5 | 24.1 | 0.00 | 0.00 | 0.00 | 23 | 1004.1 |
| 20260504001504 | 21 | 298 | 16.1 | 22.5 | 0.00 | 0.00 | 0.00 | 23 | 1004.2 |
| 20260504001004 | 21 | 279 | 14.5 | 27.4 | 0.00 | 0.00 | 0.00 | 22 | 1004.3 |
| 20260504000004 | 21 | 278 | 19.3 | 25.7 | 0.00 | 0.00 | 0.00 | 22 | 1004.4 |
| 20260503235504 | 21 | 277 | 19.3 | 27.4 | 0.00 | 0.00 | 0.00 | 22 | 1004.5 |
| 20260503235004 | 21 | 274 | 16.1 | 27.4 | 0.00 | 0.00 | 0.00 | 21 | 1004.6 |
| 20260503234504 | 21 | 305 | 19.3 | 27.4 | 0.00 | 0.00 | 0.00 | 21 | 1004.6 |
| 20260503234004 | 21 | 300 | 14.5 | 27.4 | 0.00 | 0.00 | 0.00 | 21 | 1004.7 |
| 20260503233506 | 21 | 320 | 16.1 | 29.0 | 0.00 | 0.00 | 0.00 | 22 | 1004.7 |
| 20260503233005 | 21 | 303 | 16.1 | 33.8 | 0.00 | 0.00 | 0.00 | 22 | 1004.8 |
| 20260503232505 | 21 | 295 | 19.3 | 33.8 | 0.00 | 0.00 | 0.00 | 23 | 1004.8 |
| 20260503232005 | 21 | 285 | 22.5 | 33.8 | 0.00 | 0.00 | 0.00 | 23 | 1004.8 |
| 20260503231505 | 21 | 274 | 17.7 | 27.4 | 0.00 | 0.00 | 0.00 | 22 | 1004.9 |
| 20260503231005 | 21 | 293 | 17.7 | 29.0 | 0.00 | 0.00 | 0.00 | 22 | 1005.0 |
| 20260503230006 | 21 | 282 | 22.5 | 32.2 | 0.00 | 0.00 | 0.00 | 21 | 1005.1 |
| 20260503225506 | 21 | 293 | 22.5 | 32.2 | 0.00 | 0.00 | 0.00 | 21 | 1005.1 |
| 20260503225005 | 21 | 276 | 19.3 | 32.2 | 0.00 | 0.00 | 0.00 | 20 | 1005.1 |
| 20260503224505 | 21 | 258 | 19.3 | 32.2 | 0.00 | 0.00 | 0.00 | 20 | 1005.2 |
| 20260503224005 | 21 | 272 | 20.9 | 32.2 | 0.00 | 0.00 | 0.00 | 20 | 1005.2 |
| 20260503223506 | 21 | 272 | 14.5 | 33.8 | 0.00 | 0.00 | 0.00 | 20 | 1005.3 |
| 20260503223005 | 21 | 276 | 17.7 | 33.8 | 0.00 | 0.00 | 0.00 | 20 | 1005.3 |
| 20260503222504 | 21 | 291 | 17.7 | 33.8 | 0.00 | 0.00 | 0.00 | 20 | 1005.3 |
| 20260503222005 | 21 | 296 | 17.7 | 32.2 | 0.00 | 0.00 | 0.00 | 19 | 1005.5 |
| 20260503221505 | 21 | 265 | 20.9 | 33.8 | 0.00 | 0.00 | 0.00 | 20 | 1005.5 |
| 20260503221006 | 21 | 258 | 20.9 | 33.8 | 0.00 | 0.00 | 0.00 | 20 | 1005.5 |
| 20260503220005 | 21 | 270 | 19.3 | 29.0 | 0.00 | 0.00 | 0.00 | 20 | 1005.7 |
| 20260503215505 | 21 | 275 | 20.9 | 29.0 | 0.00 | 0.00 | 0.00 | 20 | 1005.8 |
| 20260503214505 | 21 | 287 | 22.5 | 40.2 | 0.00 | 0.00 | 0.00 | 19 | 1005.9 |
| 20260503213005 | 21 | 253 | 22.5 | 38.6 | 0.00 | 0.00 | 0.00 | 22 | 1006.2 |
| 20260503212505 | 21 | 271 | 22.5 | 38.6 | 0.00 | 0.00 | 0.00 | 20 | 1006.3 |
| 20260503212005 | 21 | 287 | 19.3 | 38.6 | 0.00 | 0.00 | 0.00 | 21 | 1006.4 |
| 20260503211505 | 21 | 285 | 27.4 | 38.6 | 0.00 | 0.00 | 0.00 | 21 | 1006.4 |
| 20260503211005 | 21 | 243 | 16.1 | 35.4 | 0.00 | 0.00 | 0.00 | 22 | 1006.4 |
| 20260503210006 | 21 | 272 | 17.7 | 29.0 | 0.00 | 0.00 | 0.00 | 24 | 1006.5 |
| 20260503205505 | 21 | 287 | 19.3 | 32.2 | 0.00 | 0.00 | 0.00 | 24 | 1006.6 |
| 20260503205005 | 21 | 294 | 20.9 | 32.2 | 0.00 | 0.00 | 0.00 | 23 | 1006.7 |
| 20260503204505 | 21 | 288 | 20.9 | 32.2 | 0.00 | 0.00 | 0.00 | 25 | 1006.7 |
| 20260503204005 | 20 | 297 | 19.3 | 32.2 | 0.00 | 0.00 | 0.00 | 25 | 1006.8 |
| 20260503203005 | 20 | 275 | 19.3 | 32.2 | 0.00 | 0.00 | 0.00 | 24 | 1006.9 |
| 20260503202505 | 20 | 241 | 17.7 | 32.2 | 0.00 | 0.00 | 0.00 | 25 | 1007.0 |
| 20260503202005 | 21 | 279 | 22.5 | 32.2 | 0.00 | 0.00 | 0.00 | 25 | 1007.0 |
| 20260503201505 | 20 | 295 | 17.7 | 29.0 | 0.00 | 0.00 | 0.00 | 25 | 1007.1 |
| 20260503201005 | 20 | 299 | 20.9 | 32.2 | 0.00 | 0.00 | 0.00 | 25 | 1007.2 |
| 20260503195505 | 20 | 259 | 20.9 | 40.2 | 0.00 | 0.00 | 0.00 | 26 | 1007.4 |
| 20260503195005 | 20 | 291 | 22.5 | 40.2 | 0.00 | 0.00 | 0.00 | 26 | 1007.4 |
| 20260503194005 | 20 | 288 | 20.9 | 32.2 | 0.00 | 0.00 | 0.00 | 28 | 1007.6 |
| 20260503193504 | 20 | 276 | 16.1 | 32.2 | 0.00 | 0.00 | 0.00 | 29 | 1007.7 |
| 20260503193005 | 19 | 288 | 20.9 | 32.2 | 0.00 | 0.00 | 0.00 | 29 | 1007.8 |
| 20260503192504 | 20 | 305 | 12.9 | 32.2 | 0.00 | 0.00 | 0.00 | 29 | 1007.9 |
| 20260503192005 | 19 | 293 | 19.3 | 32.2 | 0.00 | 0.00 | 0.00 | 29 | 1008.0 |
| 20260503191505 | 19 | 283 | 20.9 | 32.2 | 0.00 | 0.00 | 0.00 | 30 | 1008.2 |
| 20260503185505 | 19 | 261 | 20.9 | 32.2 | 0.00 | 0.00 | 0.00 | 30 | 1008.3 |
| 20260503185005 | 18 | 297 | 20.9 | 32.2 | 0.00 | 0.00 | 0.00 | 29 | 1008.5 |
| 20260503184505 | 18 | 304 | 19.3 | 32.2 | 0.00 | 0.00 | 0.00 | 28 | 1008.6 |
| 20260503183505 | 18 | 289 | 16.1 | 32.2 | 0.00 | 0.00 | 0.00 | 31 | 1008.6 |
| 20260503183005 | 19 | 253 | 24.1 | 33.8 | 0.00 | 0.00 | 0.00 | 31 | 1008.6 |
| 20260503182505 | 18 | 249 | 25.7 | 35.4 | 0.00 | 0.00 | 0.00 | 30 | 1008.7 |
| 20260503182006 | 18 | 290 | 16.1 | 35.4 | 0.00 | 0.00 | 0.00 | 31 | 1008.7 |
| 20260503181505 | 18 | 276 | 22.5 | 33.8 | 0.00 | 0.00 | 0.00 | 30 | 1008.9 |
| 20260503181005 | 18 | 274 | 20.9 | 38.6 | 0.00 | 0.00 | 0.00 | 30 | 1008.9 |
| 20260503180005 | 18 | 292 | 22.5 | 37.0 | 0.00 | 0.00 | 0.00 | 31 | 1009.0 |
| 20260503175505 | 18 | 313 | 20.9 | 37.0 | 0.00 | 0.00 | 0.00 | 31 | 1009.1 |
| 20260503174505 | 17 | 266 | 14.5 | 29.0 | 0.00 | 0.00 | 0.00 | 34 | 1009.2 |
| 20260503174006 | 17 | 251 | 17.7 | 32.2 | 0.00 | 0.00 | 0.00 | 34 | 1009.3 |
| 20260503173505 | 18 | 295 | 20.9 | 32.2 | 0.00 | 0.00 | 0.00 | 33 | 1009.4 |
| 20260503173005 | 17 | 269 | 19.3 | 32.2 | 0.00 | 0.00 | 0.00 | 36 | 1009.3 |
| 20260503172505 | 17 | 274 | 20.9 | 32.2 | 0.00 | 0.00 | 0.00 | 35 | 1009.4 |
| 20260503172005 | 17 | 261 | 19.3 | 27.4 | 0.00 | 0.00 | 0.00 | 36 | 1009.4 |
| 20260503171504 | 17 | 279 | 20.9 | 27.4 | 0.00 | 0.00 | 0.00 | 35 | 1009.5 |
| 20260503171005 | 17 | 266 | 19.3 | 29.0 | 0.00 | 0.00 | 0.00 | 37 | 1009.5 |
| 20260503131005 | 7 | 234 | 8.0 | 9.7 | 0.00 | 0.00 | 0.00 | 67 | 1011.3 |
| 20260503081505 | 8 | 219 | 0.0 | 0.0 | 0.00 | 0.00 | 0.00 | 64 | 1011.0 |
| 20260503081005 | 8 | 220 | 0.0 | 0.0 | 0.00 | 0.00 | 0.00 | 63 | 1011.1 |
| 20260503072504 | 10 | 124 | 14.5 | 20.9 | 0.00 | 0.00 | 0.00 | 57 | 1011.1 |